Weather in Novospasskiy

Russia / Samara Oblast     52°59′56″N   48°46′22″E
temp.,
°C
wind,
m/s
gust,
m/s
humid.,
%
clouds,
%
prec.,
mm/h
press.,
hPa
HPBL,
m
25 january, mon
mon2501:00−3ssw5119498 0.0 1029317
04:00−3s5109694 0.0 1029382
07:00−1s4897100 0.0 1029533
10:000sse4994100 0.1 1029510
13:00−1sse6994100 0.0 1029460
16:00−2s5892100 0.1 1028601
19:00−3sse3996100 0.1 1028468
22:00−2sse4994100 0.2 1028418
26 january, tue
tue2601:00−1s61194100 0.1 1027500
04:00−4sse41094100 0.1 1027354
07:00−8s469588 0.0 1027106
10:00−5s4109690 0.0 1027420
13:00−2s6995100 0.0 1027530
16:00−2s6993100 0.1 1026566
19:00−2s61093100 0.0 1027538
22:00−3s51193100 0.1 1026564
27 january, wed
wed2701:00−5sse4894100 0.0 1026239
04:00−6sse41194100 0.0 1026281
07:00−5s5119399 0.0 1026384
10:00−5s5119399 0.1 1025402
13:00−4s61291100 0.0 1025457
16:00−4s61191100 0.0 1024416
19:00−6s51292100 0.0 1025361
22:00−6s51194100 0.0 1024348
28 january, thu
thu2801:00−6s51094100 0.0 1024339
04:00−6sse5993100 0.0 1023322
07:00−7sse4993100 0.0 1022280
10:00−8sse4993100 0.0 1022296
13:00−6sse4893100 0.0 1021356
16:00−6se4793100 0.0 1019332
19:00−9ese3694100 0.0 1019119
22:00−9se3594100 0.0 1018104
29 january, fri
fri2901:00−8ese3794100 0.0 1017230
04:00−8e3696100 0.0 1015179
07:00−7e3696100 0.1 1014249
10:00−6ese4795100 0.3 1012398
13:00−4se3693100 0.1 1011446
16:00−5ese2596100 0.3 1009258
19:00−7ese2297100 0.1 100825
22:00−8nw1296100 0.1 100821